Date String (YYYY-MM-DD hh:mm:ss) UTC,Instrument flags,Ambient pressure (hPa),Sample flow (lpm),Bypass flow (lpm),Sample temperature (°C),Ambient temperature (°C),ASC tube jacket temperature (°C),LED temperature (°C),Box temperature (°C),Sample RH (%),Span deviation,Mass concentration (μg/m³),Mass concentration (μg/m³),Mass concentration (μg/m³)
DateTimeUTC,F1_M11,P_M11,Q1_M11,Q2_M11,T1_M11,T2_M11,T3_M11,T4_M11,T5_M11,U1_M11,ZSPAN_M11,X0_M11,X2_M11,X1_M11
2022-03-03 04:00:00,,0828.5,4.99,0.00,29.7,29.0,00.0,38.7,31.4,09.4,-002.2,0012.78,0005.58,0004.97
2022-03-03 04:01:00,,0828.1,5.00,0.00,29.7,29.0,00.0,38.7,31.5,09.4,-002.4,0013.53,0005.71,0005.07
2022-03-03 04:02:00,,0828.3,5.00,0.00,29.7,29.0,00.0,38.7,31.4,09.4,-001.6,0014.30,0005.91,0005.19
2022-03-03 04:03:00,,0828.6,4.98,0.00,29.7,29.0,00.0,38.7,31.4,09.4,-001.4,0014.20,0006.08,0005.34
2022-03-03 04:04:00,,0828.2,5.00,0.00,29.7,29.0,00.0,38.7,31.4,09.4,0000.1,0014.40,0006.27,0005.48
2022-03-03 04:05:00,,0828.2,5.00,0.00,29.7,29.0,00.0,38.7,31.4,09.4,0000.6,0013.95,0006.44,0005.63
2022-03-03 04:06:00,,0828.2,5.01,0.00,29.7,29.0,00.0,38.7,31.4,09.4,0002.0,0014.63,0006.55,0005.74
2022-03-03 04:07:00,,0828.2,5.01,0.00,29.7,29.0,00.0,38.7,31.4,09.4,0003.1,0014.58,0006.59,0005.80
2022-03-03 04:08:00,,0828.3,5.00,0.00,29.7,29.0,00.0,38.7,31.4,09.3,0002.7,0013.24,0006.61,0005.83
2022-03-03 04:09:00,,0828.3,5.00,0.00,29.7,29.0,00.0,38.7,31.4,08.9,0003.5,0012.73,0006.44,0005.66
2022-03-03 04:10:00,,0828.3,5.00,0.00,29.7,29.0,00.0,38.7,31.4,09.0,0004.0,0012.45,0006.15,0005.37
2022-03-03 04:11:00,,0828.3,5.00,0.00,29.7,29.0,00.0,38.7,31.4,09.1,0004.1,0012.07,0005.77,0005.06
2022-03-03 04:12:00,,0828.3,5.00,0.00,29.7,28.9,00.0,38.7,31.3,09.3,0004.1,0011.28,0005.43,0004.76
2022-03-03 04:13:00,,0828.3,5.00,0.00,29.7,28.9,00.0,38.7,31.3,09.2,0002.5,0009.63,0004.93,0004.39
2022-03-03 04:14:00,,0828.3,5.00,0.00,29.7,28.9,00.0,38.7,31.4,09.3,0000.0,0008.97,0004.47,0004.00
2022-03-03 04:15:00,,0828.3,5.01,0.00,29.7,28.9,00.0,38.7,31.4,09.2,0000.0,0008.29,0004.01,0003.61
2022-03-03 04:16:00,,0828.3,5.01,0.00,29.7,28.9,00.0,38.7,31.4,08.8,0000.0,0007.74,0003.61,0003.24
2022-03-03 04:17:00,,0828.3,5.00,0.00,29.7,28.9,00.0,38.7,31.4,08.8,0000.0,0007.57,0003.35,0002.87
2022-03-03 04:18:00,,0828.3,4.99,0.00,29.7,28.9,00.0,38.7,31.4,08.8,0000.0,0006.61,0002.97,0002.32
2022-03-03 04:19:00,,0828.3,4.99,0.00,29.7,28.9,00.0,38.7,31.4,09.0,0000.0,0005.81,0002.31,0001.73
2022-03-03 04:20:00,,0828.3,5.02,0.00,29.7,28.9,00.0,38.7,31.4,09.0,0000.0,0005.33,0001.92,0001.35
2022-03-03 04:21:00,,0828.2,4.99,0.00,29.7,28.9,00.0,38.7,31.4,09.0,0000.0,0005.20,0001.86,0001.30
2022-03-03 04:22:00,,0828.3,5.00,0.00,29.7,28.9,00.0,38.7,31.4,09.0,0000.0,0004.55,0001.88,0001.35
2022-03-03 04:23:00,,0828.3,4.99,0.00,29.7,28.9,00.0,38.7,31.3,09.2,0000.0,0004.71,0001.97,0001.41
2022-03-03 04:24:00,,0828.2,5.00,0.00,29.6,28.9,00.0,38.7,31.3,09.3,0000.0,0004.97,0002.03,0001.48
2022-03-03 04:25:00,,0828.1,5.01,0.00,29.6,28.9,00.0,38.7,31.3,08.9,0000.0,0005.91,0002.17,0001.62
2022-03-03 04:26:00,,0828.2,5.00,0.00,29.6,28.9,00.0,38.7,31.3,08.8,0000.0,0006.29,0002.28,0001.73
2022-03-03 04:27:00,,0828.2,5.00,0.00,29.6,28.9,00.0,38.7,31.3,08.9,0000.0,0006.48,0002.40,0001.86
2022-03-03 04:28:00,,0828.3,4.99,0.00,29.6,28.9,00.0,38.7,31.3,08.9,0000.0,0006.89,0002.44,0001.93
2022-03-03 04:29:00,,0828.2,4.99,0.00,29.6,28.9,00.0,38.7,31.3,08.9,0000.0,0006.61,0002.51,0002.03
2022-03-03 04:30:00,,0828.3,5.01,0.00,29.6,28.9,00.0,38.7,31.3,08.9,0000.0,0008.78,0002.71,0002.21
2022-03-03 04:31:00,,0828.3,4.99,0.00,29.6,28.9,00.0,38.7,31.3,08.9,0000.0,0009.66,0002.92,0002.38
2022-03-03 04:32:00,,0828.3,5.00,0.00,29.6,28.9,00.0,38.7,31.3,08.9,0000.0,0010.09,0003.15,0002.58
2022-03-03 04:33:00,,0828.3,5.00,0.00,29.6,28.9,00.0,38.6,31.3,08.9,0000.0,0010.74,0003.25,0002.75
2022-03-03 04:34:00,,0828.3,5.01,0.00,29.6,28.8,00.0,38.6,31.3,08.9,0000.0,0010.94,0003.37,0002.91
2022-03-03 04:35:00,,0828.3,4.99,0.00,29.6,28.8,00.0,38.6,31.3,08.9,0000.0,0011.42,0003.49,0003.10
2022-03-03 04:36:00,,0828.3,5.00,0.00,29.6,28.8,00.0,38.6,31.3,09.0,0000.0,0011.30,0003.51,0003.12
2022-03-03 04:37:00,,0828.3,5.00,0.00,29.6,28.8,00.0,38.6,31.3,09.3,0000.0,0011.33,0003.51,0003.11
2022-03-03 04:38:00,,0828.2,5.01,0.00,29.6,28.8,00.0,38.6,31.3,09.3,0000.0,0011.55,0003.47,0003.02
2022-03-03 04:39:00,,0828.3,4.99,0.00,29.6,28.8,00.0,38.6,31.3,09.1,0000.0,0011.24,0003.41,0002.91
2022-03-03 04:40:00,,0828.2,4.99,0.00,29.5,28.8,00.0,38.6,31.2,09.1,0000.0,0011.60,0003.39,0002.82
2022-03-03 04:41:00,,0828.2,5.00,0.00,29.5,28.8,00.0,38.6,31.2,09.1,0000.0,0010.09,0003.37,0002.73
2022-03-03 04:42:00,,0828.2,5.02,0.00,29.5,28.8,00.0,38.6,31.2,09.0,0000.0,0009.35,0003.32,0002.66
2022-03-03 04:43:00,,0828.1,4.99,0.00,29.5,28.8,00.0,38.6,31.2,09.0,0000.0,0009.10,0003.28,0002.59
2022-03-03 04:44:00,,0828.1,4.99,0.00,29.5,28.7,00.0,38.6,31.2,09.0,0000.0,0008.60,0003.25,0002.54
2022-03-03 04:45:00,,0828.3,5.02,0.00,29.5,28.7,00.0,38.6,31.2,09.0,0000.0,0008.55,0003.23,0002.48
2022-03-03 04:46:00,,0828.3,4.99,0.00,29.5,28.7,00.0,38.6,31.2,09.1,0000.0,0008.36,0003.18,0002.42
2022-03-03 04:47:00,,0828.3,4.99,0.00,29.5,28.7,00.0,38.6,31.2,09.0,0000.0,0008.24,0003.17,0002.43
2022-03-03 04:48:00,,0828.3,5.02,0.00,29.5,28.7,00.0,38.6,31.2,09.1,0000.0,0008.11,0003.18,0002.46
2022-03-03 04:49:00,,0828.2,4.99,0.00,29.5,28.7,00.0,38.6,31.2,09.0,0000.0,0007.83,0003.22,0002.53
2022-03-03 04:50:00,,0828.2,4.99,0.00,29.5,28.7,00.0,38.6,31.2,08.9,0000.0,0007.49,0003.27,0002.63
2022-03-03 04:51:00,,0828.3,5.01,0.00,29.5,28.7,00.0,38.6,31.2,08.9,0000.0,0007.03,0003.34,0002.73
2022-03-03 04:52:00,,0828.4,5.01,0.00,29.5,28.7,00.0,38.6,31.2,08.9,0000.0,0007.00,0003.35,0002.77
2022-03-03 04:53:00,,0828.4,5.00,0.00,29.4,28.6,00.0,38.5,31.1,08.9,0000.0,0006.93,0003.35,0002.82
2022-03-03 04:54:00,,0828.2,4.99,0.00,29.4,28.6,00.0,38.5,31.1,08.9,0000.0,0006.99,0003.36,0002.83
2022-03-03 04:55:00,,0828.2,5.01,0.00,29.4,28.6,00.0,38.5,31.1,08.9,0000.0,0006.90,0003.31,0002.77
2022-03-03 04:56:00,,0828.3,4.99,0.00,29.4,28.6,00.0,38.5,31.1,08.8,0000.0,0007.64,0003.24,0002.67
2022-03-03 04:57:00,,0828.3,4.99,0.00,29.4,28.6,00.0,38.5,31.1,08.8,0000.0,0007.68,0003.19,0002.59
2022-03-03 04:58:00,,0828.3,5.01,0.00,29.4,28.6,00.0,38.5,31.1,08.9,0000.0,0007.17,0003.10,0002.46
2022-03-03 04:59:00,,0828.3,5.00,0.00,29.4,28.6,00.0,38.5,31.1,09.0,0000.0,0007.00,0002.99,0002.37
